Tracking 19245 objects as of 14-Aug-2018
HD Live streaming from Space Station
objects crossing your sky now

COSMOS 2498

Track COSMOS 2498 now!
10-day predictions
COSMOS 2498 is classified as:


NORAD ID: 39763
Int'l Code: 2014-028C
Perigee: 1,485.8 km
Apogee: 1,517.4 km
Inclination: 82.4 °
Period: 115.9 minutes
Semi major axis: 7872 km
RCS: Unknown
Launch date: May 23, 2014
Source: Commonwealth of Independent States (former USSR) (CIS)
Launch site: PLESETSK MISSILE AND SPACE COMPLEX (PKMTR)

COSMOS 2498 is part of the Russian military's Rodnik, or Strela 3M, system designed to relay messages between users posted in remote locations.
aabbcc
Your satellite tracking list
Your tracking list is empty




NASA's NSSDC Master Catalog

Two Line Element Set (TLE):
1 39763U 14028C   18225.71556985 +.00000005 +00000-0 -33785-4 0  9993
2 39763 082.4454 103.0534 0020074 190.6409 169.4241 12.42871334191749
Source of the keplerian elements: AFSPC